Starlink 11387

operational
NORAD ID: 62090 Int'l Des: 2024-220 Owner: SPXS Country: US Constellation: starlink
LEOCIRCULAR

Über Starlink 11387

Beschreibung wird geladen...

Live-Position

3D-Globus wird geladen...

Nächste Überflüge

Höhenverlauf

Altitude vs Time

uPlot chart will show altitude changes over time

Zweizeiliger Elementsatz

1 62090U 24220C 25349.96989626 .00123650 00000-0 95197-3 0 9996
2 62090 42.9992 187.9400 0001774 263.8750 96.1916 15.70861936 61884
Epoch: 15. Dez. 2025 • Age: 33 hours

Aktueller Status

Höhe 357.5 km
Geschwindigkeit 7.70 km/s
Subsatellitenpunkt 32.93°N, 111.98°E
Startdatum 25. Nov. 2024
Alter 1 years
Typ internet

Technische Details

Klassifizierung Payload
Masse 960.00 kg
Trockenmasse 910.00 kg
Gesamtmasse 960.00 kg
Länge 0.30 m
Durchmesser 4.10 m
Spannweite 29.00 m
Form Box + pan
Hersteller SPXS
Bus-Typ Starlink V2MD
Phasenstatus In Orbit
Besitzer/Staat SPXS/US

Große Konstellationen

Loading constellations...